This is the latest recevied weather packets stored in our database for station/object DO3MHA-13. If no packets are shown the sender has not sent any weather packets the latest 1 day(s).
| Time | Temp. | Humidity | Pressure | Rain* | Wind** | Luminosity | Snow |
|---|---|---|---|---|---|---|---|
| 1778035604 | - | - | 998.8 hPa | 0 mm | 1.79 m/s, 203° | - | - |
| 1778035594 | - | - | 998.7 hPa | 0 mm | 1.79 m/s, 225° | - | - |
| 1778035585 | 13.33° C | 76% | 998.7 hPa | 0 mm | 1.79 m/s, 180° | - | - |
| 1778035565 | - | - | 998.7 hPa | 0 mm | 1.79 m/s, 180° | - | - |
| 1778035555 | - | - | 998.8 hPa | 0 mm | 1.79 m/s, 180° | - | - |
| 1778035545 | - | - | 998.7 hPa | 0 mm | 1.79 m/s, 158° | - | - |
| 1778035515 | - | - | 998.8 hPa | 0 mm | 1.79 m/s, 225° | - | - |
| 1778035505 | - | - | 998.7 hPa | 0 mm | 1.79 m/s, 225° | - | - |
| 1778035495 | - | - | 998.8 hPa | 0 mm | 1.79 m/s, 158° | - | - |
| 1778035455 | - | - | 998.8 hPa | 0 mm | 1.79 m/s, 225° | - | - |
| 1778035445 | - | - | 998.8 hPa | 0 mm | 1.79 m/s, 180° | - | - |
| 1778035425 | - | - | 998.8 hPa | 0 mm | 2.24 m/s, 180° | - | - |
| 1778035415 | - | - | 998.8 hPa | 0 mm | 2.24 m/s, 135° | - | - |
| 1778035405 | - | - | 1054.5 hPa | 0 mm | 2.24 m/s, 225° | - | - |
| 1778035395 | - | - | 998.8 hPa | 0 mm | 2.68 m/s, 225° | - | - |
| 1778035375 | - | - | 998.8 hPa | 0 mm | 2.68 m/s, 180° | - | - |
| 1778035355 | - | - | 998.9 hPa | 0 mm | 2.68 m/s, 180° | - | - |
| 1778035345 | 13.33° C | 76% | 998.8 hPa | 0 mm | 2.68 m/s, 180° | - | - |
| 1778035335 | - | - | 998.8 hPa | 0 mm | 2.68 m/s, 180° | - | - |
| 1778035305 | - | - | 998.9 hPa | 0 mm | 2.68 m/s, 180° | - | - |
| 1778035285 | - | - | 998.8 hPa | 0 mm | 2.68 m/s, 180° | - | - |
| 1778035275 | - | - | 998.9 hPa | 0 mm | 2.68 m/s, 203° | - | - |
| 1778035265 | - | - | 998.8 hPa | 0 mm | 2.68 m/s, 225° | - | - |
| 1778035255 | - | - | 998.9 hPa | 0 mm | 2.68 m/s, 180° | - | - |
| 1778035235 | - | - | 998.9 hPa | 0 mm | 2.24 m/s, 180° | - | - |
* Rain latest hour (hover to see other rain measurements)
** Current wind speed in m/s (hover to see current wind gust speed)